Location: Rounton
(54.4000°N, 1.3500°W)
Time: 18:47:02
(UTC+00:00)

Altair - Pass Details

Date: 06 December 2021
Orbit: 1501 x 1683 km, 47.2° (Epoch: 16 January)

Event Time Altitude Azimuth Distance (km) Brightness Sun altitude
Rises 20:39:04 0° 281° (W) 4,689 10.9 -41.5°
Reaches altitude 10° 20:42:28 10° 273° (W) 3,686 10.1 -41.9°
Enters shadow 20:49:17 33° 227° (SW) 2,329 8.5 -42.8°
Maximum altitude 20:50:23 34° 213° (SSW) 2,291 - -43.0°
Drops below altitude 10° 20:58:15 10° 153° (SSE) 3,649 - -44.0°
Sets 21:01:37 0° 145° (SE) 4,635 - -44.5°
